Location: Lake Arresoe
(56.0000°N, 12.5000°E)
Time: 09:08:26
(UTC+01:00)

Okean 3 - Visible Passes

Search period start: 21 February 2019 00:00
Search period end: 03 March 2019 00:00
Orbit: 577 x 601 km, 82.5° (Epoch: 20 February)

Date Brightness Start Highest point End Pass type
(mag) Time Alt. Az. Time Alt. Az. Time Alt. Az.
21 Feb 4.1 18:44:23 10° N 18:48:23 35° ENE 18:52:20 10° SE visible
21 Feb 5.1 20:21:43 10° NNW 20:25:38 35° W 20:29:13 12° SSW visible
22 Feb 3.7 18:52:17 10° N 18:56:28 47° ENE 19:00:38 10° SSE visible
22 Feb 5.6 20:29:56 10° NNW 20:33:30 26° W 20:37:05 10° SW visible
23 Feb 3.4 19:00:13 10° N 19:04:31 64° ENE 19:08:48 10° SSE visible
23 Feb 6.1 20:38:14 10° NW 20:41:21 20° W 20:44:27 10° SW visible
24 Feb 3.4 19:08:12 10° NNW 19:12:32 87° ENE 19:16:51 10° SSE visible
24 Feb 6.5 20:46:44 10° NW 20:49:09 15° W 20:51:35 10° WSW visible
25 Feb 3.8 19:16:13 10° NNW 19:20:31 69° W 19:24:48 10° S visible
25 Feb 6.8 20:55:46 10° WNW 20:56:56 11° WNW 20:58:05 10° W visible
26 Feb 4.4 19:24:17 10° NNW 19:28:28 50° W 19:32:38 10° S visible
27 Feb 5.1 19:32:24 10° NNW 19:36:23 37° W 19:40:21 10° SSW visible
28 Feb 5.7 19:40:35 10° NNW 19:44:16 28° W 19:47:55 10° SSW visible
01 Mar 6.3 19:48:52 10° NW 19:52:06 21° W 19:55:19 10° SW visible
02 Mar 3.5 18:18:54 10° N 18:23:15 82° ENE 18:27:35 10° SSE visible
02 Mar 6.7 19:57:19 10° NW 19:59:55 16° W 20:02:30 10° WSW visible
